Weather History for KLCK - November, 2013

Change the Weather History Date:

Tuesday, November 19, 2013

  Actual Average Record
Temperature  
Mean Temperature 36 °F -  
Max Temperature 43 °F 50 °F 66 °F (1999)
Min Temperature 30 °F 33 °F 11 °F (2014)
Degree Days  
Heating Degree Days 28    
Moisture  
Dew Point 24 °F    
Average Humidity 59    
Maximum Humidity 78    
Minimum Humidity 42    
Precipitation  
Precipitation 0.00 in - - ()
Sea Level Pressure  
Sea Level Pressure 30.29 in    
Wind  
Wind Speed 7 mph (NNE)    
Max Wind Speed 14 mph    
Max Gust Speed 17 mph    
Visibility 10 miles    
Events      
Averages and records for this station are not official NWS values.
T = Trace of Precipitation, MM = Missing Value Source: NWS Daily Summary

Daily Weather History Graph

Daily Weather History Graph

Search for Another Location

Airport or City:

Trip Planner

Search our weather history database for the weather conditions in past years. The results will help you decide how hot, cold, wet, or windy it might be!

Date:

Astronomy

Nov. 19, 2013 Rise Set
Actual Time 7:21 AM EST 5:12 PM EST
Civil Twilight 6:52 AM EST 5:41 PM EST
Nautical Twilight 6:19 AM EST 6:14 PM EST
Astronomical Twilight 5:47 AM EST 6:46 PM EST
Moon 7:03 PM EST (11/19) 8:59 AM EST (11/19)
Length of Visible Light 10h 49m
Length of Day
9h 51m
Waning Gibbous, 96% of the Moon is Illuminated
Nov 19
Waning Gibbous
Nov 25
Last Quarter
Dec 2
New
Dec 9
First Quarter
Dec 17
Full

Hourly Weather History & Observations

Time (EST) Temp. Windchill Dew Point Humidity Pressure Visibility Wind Dir Wind Speed Gust Speed Precip Events Conditions
12:15 AM 37.2 °F 31.9 °F 24.6 °F 60% 30.16 in 10.0 mi NW 6.9 mph - N/A   Scattered Clouds
12:35 AM 36.5 °F 31.0 °F 24.4 °F 62% 30.16 in 10.0 mi WNW 6.9 mph - N/A   Clear
12:55 AM 36.5 °F 29.7 °F 24.3 °F 61% 30.17 in 10.0 mi WNW 9.2 mph - N/A   Clear
1:15 AM 36.0 °F 30.3 °F 24.6 °F 63% 30.17 in 10.0 mi West 6.9 mph - N/A   Clear
1:35 AM 35.2 °F 29.5 °F 25.0 °F 66% 30.17 in 10.0 mi WNW 6.9 mph - N/A   Clear
1:55 AM 34.7 °F 29.6 °F 25.5 °F 69% 30.17 in 10.0 mi WNW 5.8 mph - N/A   Clear
2:15 AM 35.1 °F 30.1 °F 26.1 °F 70% 30.18 in 10.0 mi WNW 5.8 mph - N/A   Mostly Cloudy
2:35 AM 35.8 °F 30.9 °F 26.2 °F 68% 30.19 in 10.0 mi WNW 5.8 mph - N/A   Overcast
2:55 AM 36.3 °F 31.6 °F 26.1 °F 66% 30.19 in 10.0 mi WNW 5.8 mph - N/A   Overcast
3:15 AM 36.7 °F 32.0 °F 25.7 °F 64% 30.19 in 10.0 mi West 5.8 mph - N/A   Overcast
3:35 AM 36.7 °F 32.9 °F 25.9 °F 65% 30.19 in 10.0 mi NW 4.6 mph - N/A   Overcast
3:55 AM 36.9 °F 33.1 °F 25.9 °F 64% 30.20 in 10.0 mi NW 4.6 mph - N/A   Overcast
4:15 AM 37.4 °F 30.3 °F 23.9 °F 58% 30.20 in 10.0 mi NNW 10.4 mph 17.3 mph N/A   Overcast
4:35 AM 37.4 °F 29.8 °F 22.5 °F 55% 30.21 in 10.0 mi NNW 11.5 mph 16.1 mph N/A   Overcast
4:55 AM 37.4 °F 31.4 °F 22.8 °F 56% 30.22 in 10.0 mi NNW 8.1 mph - N/A   Overcast
5:15 AM 37.4 °F 30.8 °F 23.0 °F 56% 30.23 in 10.0 mi North 9.2 mph - N/A   Overcast
5:35 AM 37.4 °F 30.8 °F 23.0 °F 56% 30.23 in 10.0 mi North 9.2 mph - N/A   Overcast
5:55 AM 37.2 °F 29.1 °F 22.8 °F 56% 30.24 in 10.0 mi North 12.7 mph 16.1 mph N/A   Overcast
6:15 AM 37.0 °F 29.3 °F 22.8 °F 56% 30.25 in 10.0 mi North 11.5 mph 16.1 mph N/A   Overcast
6:35 AM 36.9 °F 28.7 °F 22.6 °F 56% 30.26 in 10.0 mi North 12.7 mph - N/A   Overcast
6:55 AM 36.7 °F 28.9 °F 22.3 °F 56% 30.26 in 10.0 mi NNW 11.5 mph - N/A   Overcast
7:15 AM 36.7 °F 30.5 °F 22.5 °F 56% 30.26 in 10.0 mi North 8.1 mph - N/A   Overcast
7:35 AM 36.5 °F 27.8 °F 22.8 °F 58% 30.27 in 10.0 mi NNE 13.8 mph 17.3 mph N/A   Overcast
7:55 AM 36.5 °F 29.7 °F 22.5 °F 57% 30.28 in 10.0 mi North 9.2 mph - N/A   Overcast
8:15 AM 36.7 °F 29.9 °F 23.2 °F 58% 30.28 in 10.0 mi North 9.2 mph 16.1 mph N/A   Overcast
8:35 AM 36.9 °F 29.6 °F 22.8 °F 57% 30.29 in 10.0 mi NNW 10.4 mph - N/A   Overcast
8:55 AM 37.0 °F 31.0 °F 22.8 °F 56% 30.30 in 10.0 mi NNW 8.1 mph - N/A   Overcast
9:15 AM 37.4 °F 31.4 °F 23.0 °F 56% 30.31 in 10.0 mi North 8.1 mph - N/A   Overcast
9:35 AM 37.6 °F 30.5 °F 23.2 °F 56% 30.31 in 10.0 mi North 10.4 mph - N/A   Overcast
9:55 AM 38.1 °F 32.3 °F 23.4 °F 55% 30.32 in 10.0 mi North 8.1 mph - N/A   Overcast
10:15 AM 38.3 °F 32.5 °F 23.0 °F 54% 30.33 in 10.0 mi NNW 8.1 mph - N/A   Overcast
10:35 AM 38.3 °F 31.9 °F 22.6 °F 53% 30.34 in 10.0 mi North 9.2 mph - N/A   Overcast
10:55 AM 38.7 °F 33.6 °F 22.1 °F 51% 30.34 in 10.0 mi North 6.9 mph - N/A   Overcast
11:15 AM 39.0 °F 35.7 °F 22.1 °F 51% 30.33 in 10.0 mi North 4.6 mph - N/A   Overcast
11:35 AM 39.4 °F 36.1 °F 22.3 °F 50% 30.33 in 10.0 mi North 4.6 mph - N/A   Overcast
11:55 AM 39.4 °F 35.2 °F 22.5 °F 51% 30.32 in 10.0 mi North 5.8 mph - N/A   Overcast
12:15 PM 40.5 °F - 22.3 °F 48% 30.32 in 10.0 mi Calm Calm - N/A   Overcast
12:35 PM 41.0 °F 36.4 °F 22.1 °F 47% 30.31 in 10.0 mi NNE 6.9 mph - N/A   Overcast
12:55 PM 40.8 °F 37.8 °F 22.5 °F 48% 30.31 in 10.0 mi North 4.6 mph - N/A   Scattered Clouds
1:15 PM 41.9 °F 38.2 °F 21.4 °F 44% 30.31 in 10.0 mi NNE 5.8 mph - N/A   Clear
1:35 PM 42.3 °F 37.9 °F 21.2 °F 43% 30.30 in 10.0 mi NE 6.9 mph - N/A   Scattered Clouds
1:55 PM 43.0 °F 39.5 °F 21.2 °F 42% 30.30 in 10.0 mi NE 5.8 mph - N/A   Scattered Clouds
2:15 PM 42.6 °F 39.0 °F 21.4 °F 43% 30.31 in 10.0 mi ENE 5.8 mph - N/A   Scattered Clouds
2:35 PM 42.3 °F - 20.7 °F 42% 30.30 in 10.0 mi Calm Calm - N/A   Scattered Clouds
2:55 PM 41.9 °F - 21.0 °F 43% 30.30 in 10.0 mi Calm Calm - N/A   Scattered Clouds
3:15 PM 41.9 °F 40.0 °F 22.1 °F 45% 30.30 in 10.0 mi ENE 3.5 mph - N/A   Scattered Clouds
3:35 PM 41.9 °F 37.5 °F 22.6 °F 46% 30.30 in 10.0 mi East 6.9 mph - N/A   Clear
3:55 PM 42.1 °F 40.2 °F 21.9 °F 45% 30.31 in 10.0 mi ENE 3.5 mph - N/A   Clear
4:15 PM 42.3 °F 40.5 °F 21.7 °F 44% 30.31 in 10.0 mi ENE 3.5 mph - N/A   Clear
4:35 PM 41.2 °F 38.2 °F 22.6 °F 48% 30.31 in 10.0 mi ENE 4.6 mph - N/A   Clear
4:55 PM 40.3 °F 38.2 °F 23.4 °F 51% 30.32 in 10.0 mi East 3.5 mph - N/A   Scattered Clouds
5:15 PM 39.4 °F 36.1 °F 23.7 °F 54% 30.32 in 10.0 mi East 4.6 mph - N/A   Clear
5:35 PM 38.7 °F - 24.3 °F 56% 30.33 in 10.0 mi Calm Calm - N/A   Clear
5:55 PM 38.7 °F 36.3 °F 24.6 °F 57% 30.33 in 10.0 mi ESE 3.5 mph - N/A   Clear
6:15 PM 38.3 °F - 23.4 °F 55% 30.34 in 10.0 mi Calm Calm - N/A   Clear
6:35 PM 37.6 °F - 24.1 °F 58% 30.34 in 10.0 mi Calm Calm - N/A   Clear
6:55 PM 37.2 °F - 25.2 °F 62% 30.34 in 10.0 mi Calm Calm - N/A   Clear
7:15 PM 36.1 °F - 26.6 °F 68% 30.34 in 10.0 mi Calm Calm - N/A   Clear
7:35 PM 35.6 °F - 26.6 °F 70% 30.35 in 10.0 mi Calm Calm - N/A   Clear
7:55 PM 34.9 °F 32.0 °F 25.7 °F 69% 30.35 in 10.0 mi ENE 3.5 mph - N/A   Clear
8:15 PM 34.7 °F 30.6 °F 25.7 °F 70% 30.35 in 10.0 mi ENE 4.6 mph - N/A   Clear
8:35 PM 33.3 °F 28.9 °F 24.8 °F 71% 30.36 in 10.0 mi ENE 4.6 mph - N/A   Clear
8:55 PM 32.4 °F 29.1 °F 25.2 °F 75% 30.36 in 10.0 mi East 3.5 mph - N/A   Clear
9:15 PM 32.7 °F 29.6 °F 26.2 °F 77% 30.36 in 10.0 mi East 3.5 mph - N/A   Clear
9:35 PM 32.2 °F 28.9 °F 25.9 °F 78% 30.37 in 10.0 mi East 3.5 mph - N/A   Clear
9:55 PM 32.5 °F 29.3 °F 25.3 °F 75% 30.37 in 10.0 mi East 3.5 mph - N/A   Clear
10:15 PM 33.1 °F - 24.8 °F 72% 30.37 in 10.0 mi Calm Calm - N/A   Clear
10:35 PM 32.2 °F 27.7 °F 23.7 °F 71% 30.36 in 10.0 mi ENE 4.6 mph - N/A   Clear
10:55 PM 30.6 °F 24.7 °F 23.4 °F 75% 30.36 in 10.0 mi ENE 5.8 mph - N/A   Clear
11:15 PM 30.4 °F 24.5 °F 23.0 °F 74% 30.36 in 10.0 mi NE 5.8 mph - N/A   Clear
11:35 PM 30.0 °F 23.2 °F 23.0 °F 75% 30.37 in 10.0 mi NE 6.9 mph - N/A   Clear
11:55 PM 30.2 °F 25.4 °F 23.2 °F 75% 30.37 in 10.0 mi ENE 4.6 mph - N/A   Clear